Location: Newark
(35.6799°N, 139.7636°E)
Time: 10:46:18
(UTC+00:00)

Explorer 7 - Pass Details

Date: 15 December 2019
Orbit: 485 x 679 km, 50.3° (Epoch: 22 January)

Event Time Altitude Azimuth Distance (km) Brightness Sun altitude
Rises 12:18:12 0° 299° (WNW) 3,013 - -57.8°
Reaches altitude 10° 12:20:53 10° 287° (WNW) 2,079 - -58.3°
Maximum altitude 12:24:53 27° 231° (SW) 1,245 - -59.1°
Drops below altitude 10° 12:28:44 10° 173° (S) 1,988 - -59.8°
Sets 12:31:15 0° 161° (SSE) 2,855 - -60.3°
